GW6227 Weather Reports


time (UTC)temp
C
wind
direction
speed
KPH
gust
KPH
rain 1hr
cm
rain 24hr
cm
rain mn
cm
humidity
%
barometer
mb
20260505095454 28 90 16.1 22.5 0.00 0.00 0.00 82 1012.2
20260505094953 28 68 11.3 12.9 0.00 0.00 0.00 81 1012.2
20260505094454 28 338 11.3 11.3 0.00 0.00 0.00 80 1012.2
20260505093953 28 68 11.3 14.5 0.00 0.00 0.00 81 1012.2
20260505093453 28 45 12.9 19.3 0.00 0.00 0.00 79 1012.2
20260505092954 28 68 11.3 16.1 0.00 0.00 0.00 78 1012.2
20260505092453 28 90 14.5 16.1 0.00 0.00 0.00 78 1011.9
20260505091953 28 90 9.7 14.5 0.00 0.00 0.00 78 1011.9
20260505091454 28 90 14.5 22.5 0.00 0.00 0.00 77 1011.9
20260505090954 29 68 14.5 17.7 0.00 0.00 0.00 76 1011.9
20260505090453 29 68 11.3 17.7 0.00 0.00 0.00 77 1011.5
20260505085953 29 90 12.9 19.3 0.00 0.00 0.00 75 1011.9
20260505085453 29 68 19.3 24.1 0.00 0.00 0.00 75 1011.5
20260505084953 30 45 16.1 20.9 0.00 0.00 0.00 75 1011.5
20260505084454 30 90 14.5 19.3 0.00 0.00 0.00 75 1011.5
20260505083954 30 68 9.7 11.3 0.00 0.00 0.00 76 1011.5
20260505083453 30 68 17.7 20.9 0.00 0.00 0.00 72 1011.5
20260505082953 30 90 14.5 17.7 0.00 0.00 0.00 73 1011.5
20260505082453 31 90 9.7 14.5 0.00 0.00 0.00 73 1011.5
20260505081953 30 90 17.7 20.9 0.00 0.00 0.00 73 1011.2
20260505081453 30 45 24.1 30.6 0.00 0.00 0.00 71 1011.2
20260505080953 30 68 16.1 20.9 0.00 0.00 0.00 72 1011.2
20260505080454 31 68 19.3 25.7 0.00 0.00 0.00 72 1011.2
20260505075954 30 45 12.9 17.7 0.00 0.00 0.00 75 1011.2
20260505075453 31 68 16.1 20.9 0.00 0.00 0.00 73 1011.2
20260505074953 31 45 16.1 19.3 0.00 0.00 0.00 73 1011.2
20260505074453 31 113 14.5 17.7 0.00 0.00 0.00 72 1011.5
20260505073953 31 113 9.7 14.5 0.00 0.00 0.00 71 1011.5
20260505073454 31 113 11.3 14.5 0.00 0.00 0.00 72 1011.2
20260505072954 32 90 6.4 8.0 0.00 0.00 0.00 69 1011.5
20260505072453 32 90 9.7 11.3 0.00 0.00 0.00 70 1011.2
20260505071954 32 113 12.9 16.1 0.00 0.00 0.00 70 1011.5
20260505071454 32 68 12.9 16.1 0.00 0.00 0.00 69 1011.5
20260505070953 32 90 9.7 11.3 0.00 0.00 0.00 70 1011.5
20260505070456 32 113 8.0 11.3 0.00 0.00 0.00 68 1011.5
20260505065953 31 90 12.9 19.3 0.00 0.00 0.00 67 1011.5
20260505065453 32 45 6.4 8.0 0.00 0.00 0.00 71 1011.5
20260505064954 32 68 14.5 20.9 0.00 0.00 0.00 71 1011.5
20260505064454 31 68 14.5 19.3 0.00 0.00 0.00 73 1011.5
20260505063954 31 45 14.5 25.7 0.00 0.00 0.00 72 1011.5
20260505063453 31 68 16.1 19.3 0.00 0.00 0.00 72 1011.9
20260505062953 32 113 8.0 11.3 0.00 0.00 0.00 70 1011.9
20260505062453 32 90 16.1 22.5 0.00 0.00 0.00 70 1011.9
20260505061953 32 90 14.5 17.7 0.00 0.00 0.00 71 1011.9
20260505061453 32 68 8.0 11.3 0.00 0.00 0.00 68 1011.9
20260505060954 32 68 9.7 11.3 0.00 0.00 0.00 69 1011.9
20260505060453 32 68 12.9 17.7 0.00 0.00 0.00 70 1011.9
20260505055954 32 90 12.9 17.7 0.00 0.00 0.00 71 1011.9
20260505055453 32 68 14.5 17.7 0.00 0.00 0.00 69 1011.9
20260505054955 32 90 3.2 4.8 0.00 0.00 0.00 70 1011.9
20260505054454 32 68 17.7 22.5 0.00 0.00 0.00 68 1012.2
20260505053953 32 113 9.7 12.9 0.00 0.00 0.00 69 1012.2
20260505053453 32 45 9.7 11.3 0.00 0.00 0.00 68 1012.2
20260505052953 32 68 11.3 16.1 0.00 0.00 0.00 69 1012.2
20260505052454 31 68 12.9 16.1 0.00 0.00 0.00 71 1012.2
20260505051953 31 90 16.1 19.3 0.00 0.00 0.00 71 1012.2
20260505051454 32 90 14.5 20.9 0.00 0.00 0.00 70 1012.5
20260505050953 32 68 9.7 14.5 0.00 0.00 0.00 69 1012.5
20260505050453 32 135 6.4 8.0 0.00 0.00 0.00 70 1012.5
20260505041453 32 90 8.0 11.3 0.00 0.00 0.00 71 1013.2
20260505040954 32 90 1.6 3.2 0.00 0.00 0.00 69 1013.5
20260505040453 33 90 4.8 6.4 0.00 0.00 0.00 67 1013.5
20260505035953 32 23 6.4 8.0 0.00 0.00 0.00 71 1013.5
20260505035453 32 68 4.8 8.0 0.00 0.00 0.00 70 1013.5
20260505034953 32 90 3.2 4.8 0.00 0.00 0.00 70 1013.5
20260505034454 32 90 4.8 8.0 0.00 0.00 0.00 74 1013.5
20260505033953 32 68 4.8 4.8 0.00 0.00 0.00 72 1013.5
20260505033453 32 45 4.8 6.4 0.00 0.00 0.00 73 1013.5
20260505032953 31 90 8.0 11.3 0.00 0.00 0.00 74 1013.5
20260505032454 31 113 3.2 3.2 0.00 0.00 0.00 78 1013.9
20260505031954 30 68 3.2 4.8 0.00 0.00 0.00 79 1013.9
20260505031454 30 90 3.2 3.2 0.00 0.00 0.00 81 1014.2
20260505030953 30 68 6.4 8.0 0.00 0.00 0.00 80 1014.2
20260505030453 30 90 4.8 4.8 0.00 0.00 0.00 79 1013.9
20260505025954 30 68 8.0 14.5 0.00 0.00 0.00 79 1013.9
20260505025453 30 90 4.8 8.0 0.00 0.00 0.00 78 1013.9
20260505024954 31 45 3.2 4.8 0.00 0.00 0.00 78 1014.2
20260505024453 30 135 11.3 24.1 0.00 0.00 0.00 78 1014.2
20260505023953 30 68 4.8 9.7 0.00 0.00 0.00 79 1013.9
20260505023453 29 45 11.3 14.5 0.00 0.00 0.00 79 1014.2
20260505022953 29 45 12.9 16.1 0.00 0.00 0.00 79 1014.2
20260505022457 29 135 8.0 9.7 0.00 0.00 0.00 79 1014.2
20260505021953 28 68 9.7 11.3 0.00 0.00 0.00 80 1014.2
20260505021453 27 68 6.4 11.3 0.00 0.00 0.00 89 1014.6
20260505020954 27 68 11.3 14.5 0.00 0.00 0.00 91 1014.6
20260505020454 27 23 17.7 24.1 0.00 0.00 0.00 87 1014.2
20260505015953 29 90 4.8 8.0 0.00 0.00 0.00 81 1014.2
20260505015453 30 68 4.8 8.0 0.00 0.00 0.00 80 1014.2
20260505014953 29 90 8.0 11.3 0.00 0.00 0.00 82 1014.6
20260505014453 29 68 9.7 12.9 0.00 0.00 0.00 79 1014.2
20260505013953 30 90 8.0 11.3 0.00 0.00 0.00 75 1014.2
20260505013453 31 90 12.9 16.1 0.00 0.00 0.00 73 1014.2
20260505012953 32 113 9.7 11.3 0.00 0.00 0.00 72 1014.2
20260505012453 31 68 9.7 16.1 0.00 0.00 0.00 75 1014.6
20260505011953 30 90 3.2 4.8 0.00 0.00 0.00 76 1014.2
20260505011453 30 90 4.8 6.4 0.00 0.00 0.00 76 1014.2
20260505010954 30 113 4.8 6.4 0.00 0.00 0.00 76 1014.2
20260505010453 31 113 8.0 9.7 0.00 0.00 0.00 72 1014.2
20260505005954 31 90 14.5 16.1 0.00 0.00 0.00 72 1014.2
20260505005453 31 45 4.8 6.4 0.00 0.00 0.00 73 1014.6
20260505004953 31 45 6.4 11.3 0.00 0.00 0.00 75 1014.6
20260505004453 31 90 12.9 19.3 0.00 0.00 0.00 72 1014.6
20260505003956 31 113 4.8 6.4 0.00 0.00 0.00 72 1014.6
20260505003453 31 90 8.0 9.7 0.00 0.00 0.00 74 1014.2
20260505002953 30 68 9.7 14.5 0.00 0.00 0.00 74 1014.2
20260505002454 31 135 4.8 8.0 0.00 0.00 0.00 74 1014.2
20260505001953 30 68 12.9 17.7 0.00 0.00 0.00 74 1014.2
20260505001453 30 68 9.7 12.9 0.00 0.00 0.00 75 1014.2
20260505000954 31 113 8.0 12.9 0.00 0.00 0.00 76 1014.6
20260505000453 30 68 9.7 16.1 0.00 0.00 0.00 77 1014.2
20260504235954 30 68 8.0 11.3 0.00 0.00 0.00 76 1014.2
20260504235453 28 113 4.8 8.0 0.00 0.00 0.00 81 1014.2
20260504234954 30 113 6.4 8.0 0.00 0.00 0.00 78 1014.2
20260504234453 30 90 12.9 16.1 0.00 0.00 0.00 77 1014.2
20260504233956 29 68 8.0 11.3 0.00 0.00 0.00 79 1014.2
20260504233453 28 90 14.5 16.1 0.00 0.00 0.00 80 1014.2
20260504232954 28 90 4.8 8.0 0.00 0.00 0.00 81 1014.2
20260504232453 29 68 4.8 6.4 0.00 0.00 0.00 79 1014.2
20260504231953 29 68 6.4 11.3 0.00 0.00 0.00 78 1014.2
20260504231453 30 90 6.4 11.3 0.00 0.00 0.00 78 1013.9
20260504230953 30 90 4.8 4.8 0.00 0.00 0.00 76 1014.2
20260504230454 29 90 6.4 8.0 0.00 0.00 0.00 77 1013.9
20260504225953 29 45 4.8 6.4 0.00 0.00 0.00 77 1013.9
20260504225453 29 68 4.8 6.4 0.00 0.00 0.00 77 1013.9
20260504224953 29 68 1.6 4.8 0.00 0.00 0.00 78 1013.5
20260504224453 28 90 4.8 4.8 0.00 0.00 0.00 80 1013.9
20260504223954 28 68 12.9 16.1 0.00 0.00 0.00 80 1013.5
20260504223453 28 113 6.4 8.0 0.00 0.00 0.00 81 1013.5
20260504222953 27 113 1.6 3.2 0.00 0.00 0.00 82 1013.5
20260504222454 27 45 1.6 3.2 0.00 0.00 0.00 84 1013.5
20260504221954 26 68 3.2 4.8 0.00 0.00 0.00 87 1013.9
20260504221453 26 248 0.0 3.2 0.00 0.00 0.00 87 1013.5
20260504220505 27 113 1.6 3.2 0.00 0.00 0.00 83 1013.5
20260504215954 27 45 6.4 11.3 0.00 0.00 0.00 82 1013.5
20260504215454 27 68 0.0 1.6 0.00 0.00 0.00 82 1013.9
20260504214954 27 113 6.4 9.7 0.00 0.00 0.00 82 1013.5
20260504214453 27 68 8.0 9.7 0.00 0.00 0.00 81 1013.5
20260504213953 27 90 9.7 11.3 0.00 0.00 0.00 82 1013.5
20260504213455 27 68 1.6 3.2 0.00 0.00 0.00 82 1013.5
20260504212953 27 68 0.0 1.6 0.00 0.00 0.00 82 1013.5
20260504212453 27 45 6.4 6.4 0.00 0.00 0.00 82 1013.2
20260504211954 26 90 3.2 3.2 0.00 0.00 0.00 83 1013.2
20260504211453 26 23 4.8 6.4 0.00 0.00 0.00 83 1013.2
20260504210953 26 68 6.4 8.0 0.00 0.00 0.00 83 1013.2
20260504210454 26 68 4.8 6.4 0.00 0.00 0.00 83 1013.2
20260504205954 26 113 3.2 4.8 0.00 0.00 0.00 83 1013.2
20260504205453 26 90 4.8 6.4 0.00 0.00 0.00 83 1013.2
20260504204953 26 68 4.8 6.4 0.00 0.00 0.00 83 1013.2
20260504204454 27 113 6.4 8.0 0.00 0.00 0.00 82 1012.9
20260504203953 27 68 6.4 11.3 0.00 0.00 0.00 82 1012.9
20260504203454 26 113 8.0 9.7 0.00 0.00 0.00 82 1012.9
20260504202953 27 90 11.3 11.3 0.00 0.00 0.00 82 1012.9
20260504202453 27 68 11.3 16.1 0.00 0.00 0.00 81 1012.9
20260504201953 26 68 6.4 9.7 0.00 0.00 0.00 83 1012.9
20260504201454 26 45 3.2 3.2 0.00 0.00 0.00 82 1012.9
20260504200955 26 68 4.8 6.4 0.00 0.00 0.00 82 1012.9
20260504200455 26 68 8.0 9.7 0.00 0.00 0.00 82 1012.9
20260504195954 26 68 8.0 11.3 0.00 0.00 0.00 83 1012.9
20260504195453 26 90 6.4 9.7 0.00 0.00 0.00 83 1013.2
20260504194954 26 90 6.4 8.0 0.00 0.00 0.00 83 1013.2
20260504194455 26 45 6.4 8.0 0.00 0.00 0.00 82 1012.9
20260504193953 26 45 8.0 11.3 0.00 0.00 0.00 81 1012.9
20260504193453 26 90 8.0 11.3 0.00 0.00 0.00 82 1012.9
20260504192953 26 45 6.4 9.7 0.00 0.00 0.00 81 1013.5
20260504192453 26 45 11.3 12.9 0.00 0.00 0.00 82 1013.2
20260504191956 26 90 9.7 14.5 0.00 0.00 0.00 81 1012.9
20260504191453 27 68 12.9 16.1 0.00 0.00 0.00 80 1012.9
20260504190953 27 45 6.4 9.7 0.00 0.00 0.00 80 1013.2
20260504190454 27 68 8.0 14.5 0.00 0.00 0.00 80 1012.9
20260504185953 26 68 8.0 9.7 0.00 0.00 0.00 81 1012.9
20260504185453 26 90 8.0 11.3 0.00 0.00 0.00 81 1013.2
20260504184953 27 68 9.7 11.3 0.00 0.00 0.00 79 1013.2
20260504184454 27 113 9.7 11.3 0.00 0.00 0.00 80 1013.2
20260504183953 26 135 6.4 9.7 0.00 0.00 0.00 80 1013.2
20260504183453 26 23 8.0 9.7 0.00 0.00 0.00 80 1013.2
20260504182953 26 45 8.0 9.7 0.00 0.00 0.00 79 1013.5
20260504182453 27 45 9.7 11.3 0.00 0.00 0.00 79 1013.5
20260504181954 26 113 8.0 11.3 0.00 0.00 0.00 79 1013.5
20260504181454 26 68 11.3 12.9 0.00 0.00 0.00 79 1013.5
20260504180953 26 90 4.8 8.0 0.00 0.00 0.00 78 1013.5
20260504180454 27 45 6.4 8.0 0.00 0.00 0.00 77 1013.5
20260504175953 27 68 4.8 6.4 0.00 0.00 0.00 77 1013.2
20260504175453 27 68 4.8 6.4 0.00 0.00 0.00 78 1013.2
20260504174955 27 68 9.7 11.3 0.00 0.00 0.00 78 1013.5
20260504174453 27 68 8.0 12.9 0.00 0.00 0.00 79 1013.5
20260504173953 26 68 9.7 11.3 0.00 0.00 0.00 79 1013.5
20260504173454 27 45 9.7 11.3 0.00 0.00 0.00 80 1013.5
20260504172954 26 45 8.0 9.7 0.00 0.00 0.00 82 1013.5
20260504172453 26 68 4.8 8.0 0.00 0.00 0.00 82 1013.5
20260504171953 26 68 6.4 8.0 0.00 0.00 0.00 82 1013.9
20260504171453 26 68 6.4 8.0 0.00 0.00 0.00 82 1013.9
20260504170953 26 68 9.7 12.9 0.00 0.00 0.00 81 1013.9
20260504170454 26 68 4.8 8.0 0.00 0.00 0.00 81 1013.9
20260504150953 27 45 11.3 11.3 0.00 0.00 0.00 79 1014.9
20260504150453 27 68 8.0 11.3 0.00 0.00 0.00 79 1014.9
20260504140953 25 45 1.6 3.2 0.00 0.00 0.00 89 1015.2
20260504140456 26 68 1.6 3.2 0.00 0.00 0.00 88 1014.9
20260504130453 26 45 3.2 3.2 0.00 0.00 0.00 85 1014.6
20260504110453 27 68 6.4 9.7 0.00 0.00 0.00 85 1013.9
20260504100453 28 68 12.9 16.1 0.00 0.00 0.00 82 1012.9